Date String (YYYY-MM-DD hh:mm:ss) UTC,Instrument flags,Ambient pressure (hPa),Sample flow (lpm),Bypass flow (lpm),Sample temperature (°C),Ambient temperature (°C),ASC tube jacket temperature (°C),LED temperature (°C),Box temperature (°C),Sample RH (%),Span deviation,Mass concentration (μg/m³),Mass concentration (μg/m³),Mass concentration (μg/m³)
DateTimeUTC,F1_M11,P_M11,Q1_M11,Q2_M11,T1_M11,T2_M11,T3_M11,T4_M11,T5_M11,U1_M11,ZSPAN_M11,X2_M11,X0_M11,X1_M11
2022-05-28 15:00:00,,0818.0,4.99,0.00,30.2,29.3,00.0,39.1,32.1,17.2,0000.0,0005.26,0011.22,0004.25
2022-05-28 15:01:00,,0818.1,5.00,0.00,30.3,29.3,00.0,39.1,32.1,21.2,0000.0,0005.31,0010.95,0004.27
2022-05-28 15:02:00,,0818.1,4.99,0.00,30.3,29.4,00.0,39.1,32.1,22.2,0000.0,0005.33,0010.73,0004.29
2022-05-28 15:03:00,,0818.1,5.01,0.00,30.3,29.4,00.0,39.1,32.1,21.2,0000.0,0005.38,0010.86,0004.30
2022-05-28 15:04:00,,0818.1,5.00,0.00,30.3,29.3,00.0,39.1,32.1,22.2,0000.0,0005.37,0010.92,0004.32
2022-05-28 15:05:00,,0818.1,4.99,0.00,30.3,28.5,00.0,39.1,32.0,22.9,0000.0,0005.37,0010.68,0004.33
2022-05-28 15:06:00,,0818.0,5.00,0.00,30.2,27.5,00.0,39.0,31.7,22.5,0000.0,0005.42,0010.68,0004.35
2022-05-28 15:07:00,,0818.0,5.00,0.00,30.1,27.3,00.0,38.9,31.6,20.9,0000.0,0005.45,0010.85,0004.36
2022-05-28 15:08:00,,0818.1,5.01,0.00,30.0,27.3,00.0,38.9,31.5,22.7,0000.0,0005.46,0010.89,0004.35
2022-05-28 15:09:00,,0818.0,4.99,0.00,29.9,27.4,00.0,38.9,31.5,22.9,0000.0,0005.49,0010.94,0004.36
2022-05-28 15:10:00,,0818.0,5.02,0.00,29.8,27.6,00.0,38.9,31.5,22.8,0000.0,0005.51,0010.85,0004.38
2022-05-28 15:11:00,,0818.1,4.99,0.00,29.8,27.8,00.0,38.8,31.5,22.5,0000.0,0005.51,0010.96,0004.39
2022-05-28 15:12:00,,0818.0,4.99,0.00,29.8,27.9,00.0,38.8,31.5,22.6,0000.0,0005.46,0010.82,0004.40
2022-05-28 15:13:00,,0818.0,5.01,0.00,29.8,28.1,00.0,38.8,31.5,22.7,0000.0,0005.41,0010.63,0004.40
2022-05-28 15:14:00,,0818.0,4.99,0.00,29.8,28.2,00.0,38.8,31.5,22.4,0000.0,0005.43,0011.12,0004.41
2022-05-28 15:15:00,,0818.0,4.99,0.00,29.8,28.3,00.0,38.8,31.6,21.3,0000.0,0005.48,0011.40,0004.41
2022-05-28 15:16:00,,0818.0,5.00,0.00,29.8,28.4,00.0,38.8,31.6,17.8,0000.0,0005.49,0011.42,0004.41
2022-05-28 15:17:00,,0818.0,4.99,0.00,29.8,28.5,00.0,38.8,31.6,14.7,0000.0,0005.53,0011.55,0004.41
2022-05-28 15:18:00,,0818.0,5.00,0.00,29.8,28.6,00.0,38.8,31.7,14.5,0000.0,0005.54,0011.71,0004.42
2022-05-28 15:19:00,,0818.0,4.99,0.00,29.8,28.6,00.0,38.8,31.7,14.5,0000.0,0005.52,0011.94,0004.43
2022-05-28 15:20:00,,0818.0,5.01,0.00,29.8,28.7,00.0,38.8,31.7,14.4,0000.0,0005.53,0012.71,0004.44
2022-05-28 15:21:00,,0817.9,5.00,0.00,29.9,28.7,00.0,38.8,31.7,14.6,0000.0,0005.57,0013.08,0004.45
2022-05-28 15:22:00,,0817.9,5.00,0.00,29.9,28.8,00.0,38.8,31.7,16.7,0000.0,0005.54,0013.53,0004.44
2022-05-28 15:23:00,,0817.8,5.00,0.00,29.9,28.8,00.0,38.8,31.8,17.2,0000.0,0005.55,0014.09,0004.44
2022-05-28 15:24:00,,0817.9,5.00,0.00,29.9,28.9,00.0,38.8,31.8,16.0,0000.0,0005.56,0014.00,0004.43
2022-05-28 15:25:00,,0817.8,5.00,0.00,29.9,28.9,00.0,38.8,31.8,20.9,0000.0,0005.56,0013.78,0004.42
2022-05-28 15:26:00,,0817.8,5.01,0.00,30.0,29.0,00.0,38.8,31.8,23.6,0000.0,0005.52,0013.63,0004.41
2022-05-28 15:27:00,,0817.9,5.00,0.00,30.0,29.0,00.0,38.8,31.9,23.3,0000.0,0005.49,0013.66,0004.41
2022-05-28 15:28:00,,0817.8,5.01,0.00,30.0,29.0,00.0,38.8,31.9,21.5,0000.0,0005.45,0013.65,0004.39
2022-05-28 15:29:00,,0817.9,4.99,0.00,30.0,29.1,00.0,38.9,31.9,20.7,0000.0,0005.40,0013.35,0004.38
2022-05-28 15:30:00,,0817.9,5.00,0.00,30.0,29.1,00.0,38.9,31.9,24.2,0000.0,0005.40,0013.38,0004.38
2022-05-28 15:31:00,,0817.8,5.00,0.00,30.0,29.1,00.0,38.9,31.9,26.6,0000.0,0005.39,0012.70,0004.38
2022-05-28 15:32:00,,0817.8,5.01,0.00,30.1,29.1,00.0,38.9,32.0,25.5,0000.0,0005.34,0012.14,0004.39
2022-05-28 15:33:00,,0817.8,5.00,0.00,30.1,29.2,00.0,38.9,32.0,26.3,0000.0,0005.34,0012.60,0004.39
2022-05-28 15:34:00,,0817.8,5.00,0.00,30.1,29.2,00.0,38.9,32.0,26.5,0000.0,0005.34,0012.16,0004.40
2022-05-28 15:35:00,,0817.8,5.00,0.00,30.1,29.2,00.0,38.9,32.0,23.6,0000.0,0005.34,0013.37,0004.41
2022-05-28 15:36:00,,0817.7,5.00,0.00,30.1,29.2,00.0,39.0,32.0,21.9,0000.0,0005.33,0013.45,0004.41
2022-05-28 15:37:00,,0817.7,5.00,0.00,30.1,29.2,00.0,39.0,32.0,19.0,0000.0,0005.33,0013.18,0004.42
2022-05-28 15:38:00,,0817.8,4.99,0.00,30.2,29.3,00.0,39.0,32.0,18.2,0000.0,0005.39,0013.19,0004.44
2022-05-28 15:39:00,,0817.7,5.00,0.00,30.2,29.0,00.0,39.0,32.0,17.7,0000.0,0005.38,0013.67,0004.46
2022-05-28 15:40:00,,0817.7,5.01,0.00,30.1,28.1,00.0,38.9,31.8,18.5,0000.0,0005.40,0013.67,0004.47
2022-05-28 15:41:00,,0817.7,5.00,0.00,30.0,27.5,00.0,38.8,31.6,17.5,0000.0,0005.43,0013.31,0004.47
2022-05-28 15:42:00,,0817.7,4.98,0.00,29.9,27.4,00.0,38.8,31.5,15.4,0000.0,0005.45,0013.35,0004.49
2022-05-28 15:43:00,,0817.6,5.00,0.00,29.8,27.4,00.0,38.8,31.4,15.3,0000.0,0005.48,0013.21,0004.50
2022-05-28 15:44:00,,0817.6,4.99,0.00,29.8,27.5,00.0,38.8,31.4,15.4,0000.0,0005.47,0012.37,0004.52
2022-05-28 15:45:00,,0817.6,5.01,0.00,29.8,27.7,00.0,38.7,31.5,14.8,0000.0,0005.51,0012.31,0004.55
2022-05-28 15:46:00,,0817.6,5.00,0.00,29.7,27.9,00.0,38.7,31.5,14.0,0000.0,0005.56,0011.53,0004.60
2022-05-28 15:47:00,,0817.6,4.99,0.00,29.7,28.0,00.0,38.7,31.5,15.5,0000.0,0005.61,0011.69,0004.66
2022-05-28 15:48:00,,0817.5,5.01,0.00,29.7,28.1,00.0,38.7,31.5,15.2,0000.0,0005.67,0011.90,0004.71
2022-05-28 15:49:00,,0817.5,5.00,0.00,29.7,28.3,00.0,38.7,31.5,15.3,0000.0,0005.70,0011.97,0004.75
2022-05-28 15:50:00,,0817.5,5.00,0.00,29.8,28.4,00.0,38.7,31.6,16.8,0000.0,0005.69,0011.66,0004.77
2022-05-28 15:51:00,,0817.4,5.00,0.00,29.8,28.5,00.0,38.7,31.6,16.1,0000.0,0005.75,0012.05,0004.78
2022-05-28 15:52:00,,0817.5,5.00,0.00,29.8,28.6,00.0,38.7,31.6,16.1,0000.0,0005.75,0012.30,0004.80
2022-05-28 15:53:00,,0817.4,5.00,0.00,29.8,28.6,00.0,38.7,31.7,17.3,0000.0,0005.76,0013.46,0004.81
2022-05-28 15:54:00,,0817.5,5.00,0.00,29.8,28.7,00.0,38.7,31.7,24.4,0000.0,0005.76,0014.56,0004.81
2022-05-28 15:55:00,,0817.5,5.01,0.00,29.8,28.8,00.0,38.7,31.7,24.6,0000.0,0005.78,0014.82,0004.81
2022-05-28 15:56:00,,0817.5,4.99,0.00,29.9,28.8,00.0,38.7,31.8,23.5,0000.0,0005.79,0015.34,0004.78
2022-05-28 15:57:00,,0817.4,4.99,0.00,29.9,28.9,00.0,38.8,31.8,23.4,0000.0,0005.75,0015.15,0004.73
2022-05-28 15:58:00,,0817.4,5.01,0.00,29.9,28.9,00.0,38.8,31.8,24.1,0000.0,0005.74,0015.63,0004.67
2022-05-28 15:59:00,,0817.4,5.00,0.00,29.9,29.0,00.0,38.8,31.8,23.5,0000.0,0005.69,0016.01,0004.62
